TimeEDT,TemperatureF,Dew PointF,Humidity,Sea Level PressureIn,VisibilityMPH,Wind Direction,Wind SpeedMPH,Gust SpeedMPH,PrecipitationIn,Events,Conditions,WindDirDegrees,DateUTC
12:54 AM,73.0,66.9,81,29.95,10.0,SSW,5.8,-,N/A,,Clear,210,2013-08-03 04:54:00
1:54 AM,72.0,68.0,87,29.94,10.0,SW,6.9,-,N/A,,Clear,220,2013-08-03 05:54:00
2:54 AM,72.0,68.0,87,29.93,10.0,WSW,5.8,-,N/A,,Clear,240,2013-08-03 06:54:00
3:54 AM,72.0,69.1,91,29.93,10.0,SW,8.1,-,N/A,,Clear,230,2013-08-03 07:54:00
4:54 AM,72.0,70.0,93,29.94,7.0,SW,5.8,-,N/A,,Clear,230,2013-08-03 08:54:00
5:54 AM,72.0,70.0,93,29.94,8.0,WSW,5.8,-,N/A,,Clear,240,2013-08-03 09:54:00
6:54 AM,72.0,69.1,91,29.94,8.0,SW,5.8,-,N/A,,Clear,230,2013-08-03 10:54:00
7:17 AM,72.0,69.1,91,29.94,4.0,SW,6.9,-,N/A,,Partly Cloudy,230,2013-08-03 11:17:00
7:54 AM,73.0,68.0,84,29.95,9.0,WSW,5.8,-,N/A,,Clear,250,2013-08-03 11:54:00
8:37 AM,75.0,66.9,76,29.95,10.0,WSW,5.8,-,N/A,,Partly Cloudy,240,2013-08-03 12:37:00
8:54 AM,75.9,66.0,71,29.96,10.0,WSW,8.1,-,N/A,,Partly Cloudy,240,2013-08-03 12:54:00
9:54 AM,77.0,64.9,66,29.96,10.0,West,8.1,-,N/A,,Overcast,270,2013-08-03 13:54:00
10:54 AM,75.9,66.0,71,29.96,10.0,WNW,10.4,-,N/A,,Mostly Cloudy,290,2013-08-03 14:54:00
11:54 AM,73.9,66.9,79,29.96,10.0,West,5.8,-,0.01,,Scattered Clouds,280,2013-08-03 15:54:00
12:54 PM,77.0,64.9,66,29.95,10.0,West,11.5,-,N/A,,Mostly Cloudy,280,2013-08-03 16:54:00
1:06 PM,78.1,64.9,64,29.95,10.0,WNW,11.5,19.6,N/A,,Mostly Cloudy,290,2013-08-03 17:06:00
1:54 PM,80.1,64.0,58,29.94,10.0,WNW,12.7,-,N/A,,Partly Cloudy,290,2013-08-03 17:54:00
2:54 PM,77.0,64.9,66,29.94,10.0,WNW,10.4,-,0.00,,Scattered Clouds,290,2013-08-03 18:54:00
3:54 PM,73.9,68.0,82,29.93,10.0,West,6.9,-,0.00,Rain,Light Rain,280,2013-08-03 19:54:00
4:54 PM,75.9,64.9,69,29.92,10.0,West,10.4,-,0.00,,Overcast,260,2013-08-03 20:54:00
5:54 PM,73.0,66.9,81,29.93,10.0,SW,8.1,-,0.00,Rain,Light Rain,230,2013-08-03 21:54:00
6:54 PM,71.1,64.0,78,29.93,10.0,WSW,8.1,-,0.00,,Overcast,240,2013-08-03 22:54:00
7:54 PM,70.0,64.0,81,29.93,10.0,WSW,8.1,-,0.00,,Overcast,240,2013-08-03 23:54:00
8:54 PM,68.0,64.9,90,29.93,10.0,SW,9.2,-,0.02,Rain,Light Rain,220,2013-08-04 00:54:00
9:54 PM,66.9,64.9,93,29.93,10.0,West,6.9,-,0.00,,Clear,260,2013-08-04 01:54:00
10:54 PM,66.9,64.9,93,29.92,10.0,WSW,4.6,-,N/A,,Mostly Cloudy,250,2013-08-04 02:54:00
11:54 PM,66.9,64.0,90,29.91,10.0,WSW,4.6,-,N/A,,Clear,250,2013-08-04 03:54:00